contact:dominique.lefevre@mio.osupytheas.fr, maurice.libes@osupytheas.fr, didier.mallarino@osupytheas.fr
Project:EMSO http://www.emso-fr.org/EMSO-France
Depth: 2436.0 m
Title:EMSO Ligure Ouest : Data MII capteur MICROCAT
DateTime_Computer,Latitude,Longitude,Temperature,Conductivity,Pressure,DateTime_Instrument
DateTime_Computer,Latitude,Longitude,degC,S m-1,dbar,DateTime_Instrument
2021-02-13T00:00:26Z,42.805,6.029,13.2983,4.60000,2470.25,2021-2-13T02:01:30Z
2021-02-13T00:03:29Z,42.805,6.029,13.2989,4.60000,2470.217,2021-2-13T02:04:33Z
2021-02-13T00:06:32Z,42.805,6.029,13.2991,4.60010,2470.264,2021-2-13T02:07:36Z
2021-02-13T00:09:35Z,42.805,6.029,13.2985,4.60016,2470.203,2021-2-13T02:10:39Z
2021-02-13T00:12:38Z,42.805,6.029,13.2986,4.60004,2470.203,2021-2-13T02:13:42Z
2021-02-13T00:15:42Z,42.805,6.029,13.2983,4.59996,2470.25,2021-2-13T02:16:45Z
2021-02-13T00:18:45Z,42.805,6.029,13.2986,4.59995,2470.203,2021-2-13T02:19:48Z
2021-02-13T00:21:48Z,42.805,6.029,13.2981,4.59994,2470.217,2021-2-13T02:22:52Z
2021-02-13T00:24:51Z,42.805,6.029,13.2991,4.60014,2470.203,2021-2-13T02:25:55Z
2021-02-13T00:27:54Z,42.805,6.029,13.2983,4.60001,2470.194,2021-2-13T02:28:58Z
2021-02-13T00:30:57Z,42.805,6.029,13.2983,4.59999,2470.264,2021-2-13T02:32:01Z
2021-02-13T00:34:00Z,42.805,6.029,13.2992,4.59994,2470.217,2021-2-13T02:35:04Z
2021-02-13T00:37:03Z,42.805,6.029,13.2983,4.59997,2470.156,2021-2-13T02:38:07Z
2021-02-13T00:40:07Z,42.805,6.029,13.2984,4.59990,2470.203,2021-2-13T02:41:10Z
2021-02-13T00:43:10Z,42.805,6.029,13.2983,4.60003,2470.24,2021-2-13T02:44:13Z
2021-02-13T00:46:13Z,42.805,6.029,13.2983,4.60007,2470.24,2021-2-13T02:47:17Z
2021-02-13T00:49:16Z,42.805,6.029,13.2985,4.59990,2470.18,2021-2-13T02:50:20Z
2021-02-13T00:52:19Z,42.805,6.029,13.2980,4.59991,2470.18,2021-2-13T02:53:23Z
2021-02-13T00:55:22Z,42.805,6.029,13.2984,4.59995,2470.194,2021-2-13T02:56:26Z
2021-02-13T00:58:25Z,42.805,6.029,13.2985,4.59996,2470.18,2021-2-13T02:59:29Z
2021-02-13T01:01:28Z,42.805,6.029,13.2990,4.59996,2470.18,2021-2-13T03:02:32Z
2021-02-13T01:04:32Z,42.805,6.029,13.2981,4.59996,2470.194,2021-2-13T03:05:35Z
2021-02-13T01:07:35Z,42.805,6.029,13.2983,4.59993,2470.18,2021-2-13T03:08:38Z
2021-02-13T01:10:38Z,42.805,6.029,13.2986,4.59996,2470.194,2021-2-13T03:11:42Z
2021-02-13T01:13:41Z,42.805,6.029,13.2983,4.59998,2470.203,2021-2-13T03:14:45Z
2021-02-13T01:16:44Z,42.805,6.029,13.2987,4.60001,2470.194,2021-2-13T03:17:48Z
2021-02-13T01:19:47Z,42.805,6.029,13.2980,4.59991,2470.156,2021-2-13T03:20:51Z
2021-02-13T01:22:50Z,42.805,6.029,13.2987,4.59995,2470.18,2021-2-13T03:23:54Z
2021-02-13T01:25:53Z,42.805,6.029,13.2982,4.60003,2470.156,2021-2-13T03:26:57Z
2021-02-13T01:28:57Z,42.805,6.029,13.2986,4.59991,2470.171,2021-2-13T03:30:00Z
2021-02-13T01:32:00Z,42.805,6.029,13.2989,4.59995,2470.156,2021-2-13T03:33:03Z
2021-02-13T01:35:03Z,42.805,6.029,13.2986,4.59994,2470.171,2021-2-13T03:36:07Z
2021-02-13T01:38:06Z,42.805,6.029,13.2986,4.60005,2470.156,2021-2-13T03:39:10Z
2021-02-13T01:41:09Z,42.805,6.029,13.2986,4.59999,2470.18,2021-2-13T03:42:13Z
2021-02-13T01:44:12Z,42.805,6.029,13.2983,4.59991,2470.156,2021-2-13T03:45:16Z
2021-02-13T01:47:15Z,42.805,6.029,13.2982,4.60006,2470.156,2021-2-13T03:48:19Z
2021-02-13T01:50:18Z,42.805,6.029,13.2981,4.59996,2470.217,2021-2-13T03:51:22Z
2021-02-13T01:53:22Z,42.805,6.029,13.2982,4.59991,2470.18,2021-2-13T03:54:25Z
2021-02-13T01:56:25Z,42.805,6.029,13.2982,4.59993,2470.156,2021-2-13T03:57:28Z
2021-02-13T01:59:28Z,42.805,6.029,13.2984,4.59994,2470.18,2021-2-13T04:00:32Z
2021-02-13T02:02:31Z,42.805,6.029,13.2989,4.59999,2470.18,2021-2-13T04:03:35Z
2021-02-13T02:05:34Z,42.805,6.029,13.2982,4.59992,2470.171,2021-2-13T04:06:38Z
2021-02-13T02:08:37Z,42.805,6.029,13.2983,4.59993,2470.18,2021-2-13T04:09:41Z
2021-02-13T02:11:40Z,42.805,6.029,13.2982,4.59994,2470.147,2021-2-13T04:12:44Z
2021-02-13T02:14:43Z,42.805,6.029,13.2979,4.59994,2470.18,2021-2-13T04:15:47Z
2021-02-13T02:17:47Z,42.805,6.029,13.2983,4.60001,2470.18,2021-2-13T04:18:50Z
2021-02-13T02:20:50Z,42.805,6.029,13.2985,4.59993,2470.156,2021-2-13T04:21:53Z
2021-02-13T02:23:53Z,42.805,6.029,13.2986,4.59996,2470.194,2021-2-13T04:24:56Z
2021-02-13T02:26:56Z,42.805,6.029,13.2983,4.59994,2470.18,2021-2-13T04:28:00Z
2021-02-13T02:29:59Z,42.805,6.029,13.2983,4.60010,2470.133,2021-2-13T04:31:03Z
2021-02-13T02:33:02Z,42.805,6.029,13.2994,4.60003,2470.171,2021-2-13T04:34:06Z
2021-02-13T02:36:05Z,42.805,6.029,13.2984,4.59995,2470.133,2021-2-13T04:37:09Z
2021-02-13T02:39:08Z,42.805,6.029,13.2983,4.60000,2470.171,2021-2-13T04:40:12Z
2021-02-13T02:42:12Z,42.805,6.029,13.2985,4.60004,2470.156,2021-2-13T04:43:15Z
2021-02-13T02:45:15Z,42.805,6.029,13.2983,4.59998,2470.18,2021-2-13T04:46:18Z
2021-02-13T02:48:18Z,42.805,6.029,13.2983,4.59999,2470.18,2021-2-13T04:49:21Z
2021-02-13T02:51:21Z,42.805,6.029,13.2983,4.60006,2470.156,2021-2-13T04:52:25Z
2021-02-13T02:54:24Z,42.805,6.029,13.2978,4.59997,2470.156,2021-2-13T04:55:28Z
2021-02-13T02:57:27Z,42.805,6.029,13.2985,4.60001,2470.147,2021-2-13T04:58:31Z
2021-02-13T03:00:30Z,42.805,6.029,13.2983,4.59991,2470.156,2021-2-13T05:01:34Z
2021-02-13T03:03:33Z,42.805,6.029,13.2986,4.59992,2470.133,2021-2-13T05:04:37Z
2021-02-13T03:06:36Z,42.805,6.029,13.2982,4.59997,2470.156,2021-2-13T05:07:40Z
2021-02-13T03:09:40Z,42.805,6.029,13.2985,4.60002,2470.156,2021-2-13T05:10:43Z
2021-02-13T03:12:43Z,42.805,6.029,13.2983,4.59999,2470.194,2021-2-13T05:13:46Z
2021-02-13T03:15:46Z,42.805,6.029,13.2986,4.60009,2470.133,2021-2-13T05:16:50Z
2021-02-13T03:18:49Z,42.805,6.029,13.2979,4.60007,2470.156,2021-2-13T05:19:53Z
2021-02-13T03:21:52Z,42.805,6.029,13.2986,4.59996,2470.147,2021-2-13T05:22:56Z
2021-02-13T03:24:55Z,42.805,6.029,13.2986,4.60031,2470.156,2021-2-13T05:25:59Z
2021-02-13T03:27:58Z,42.805,6.029,13.2982,4.60013,2470.156,2021-2-13T05:29:02Z
2021-02-13T03:31:01Z,42.805,6.029,13.2986,4.59999,2470.133,2021-2-13T05:32:05Z
2021-02-13T03:34:05Z,42.805,6.029,13.2982,4.60000,2470.156,2021-2-13T05:35:08Z
2021-02-13T03:37:08Z,42.805,6.029,13.2987,4.59998,2470.18,2021-2-13T05:38:11Z
2021-02-13T03:40:11Z,42.805,6.029,13.2990,4.60003,2470.194,2021-2-13T05:41:15Z
2021-02-13T03:43:14Z,42.805,6.029,13.2986,4.60001,2470.24,2021-2-13T05:44:18Z
2021-02-13T03:46:17Z,42.805,6.029,13.2993,4.60010,2470.147,2021-2-13T05:47:21Z
2021-02-13T03:49:20Z,42.805,6.029,13.2991,4.60000,2470.203,2021-2-13T05:50:24Z
2021-02-13T03:52:23Z,42.805,6.029,13.2984,4.60006,2470.156,2021-2-13T05:53:27Z
2021-02-13T03:55:26Z,42.805,6.029,13.2980,4.59999,2470.18,2021-2-13T05:56:30Z
2021-02-13T03:58:30Z,42.805,6.029,13.2987,4.60009,2470.194,2021-2-13T05:59:33Z
2021-02-13T04:01:33Z,42.805,6.029,13.2990,4.60003,2470.194,2021-2-13T06:02:36Z
2021-02-13T04:04:36Z,42.805,6.029,13.2986,4.60024,2470.156,2021-2-13T06:05:40Z
2021-02-13T04:07:39Z,42.805,6.029,13.2990,4.60010,2470.18,2021-2-13T06:08:43Z
2021-02-13T04:10:42Z,42.805,6.029,13.2982,4.60007,2470.203,2021-2-13T06:11:46Z
2021-02-13T04:13:45Z,42.805,6.029,13.2983,4.60008,2470.217,2021-2-13T06:14:49Z
2021-02-13T04:16:48Z,42.805,6.029,13.2996,4.60021,2470.24,2021-2-13T06:17:52Z
2021-02-13T04:19:51Z,42.805,6.029,13.2989,4.60024,2470.203,2021-2-13T06:20:55Z
2021-02-13T04:22:55Z,42.805,6.029,13.2990,4.59999,2470.203,2021-2-13T06:23:58Z
2021-02-13T04:25:58Z,42.805,6.029,13.2987,4.60002,2470.194,2021-2-13T06:27:01Z
2021-02-13T04:29:01Z,42.805,6.029,13.2982,4.59999,2470.18,2021-2-13T06:30:05Z
2021-02-13T04:32:04Z,42.805,6.029,13.2986,4.60000,2470.217,2021-2-13T06:33:08Z
2021-02-13T04:35:07Z,42.805,6.029,13.3000,4.60035,2470.217,2021-2-13T06:36:11Z
2021-02-13T04:38:10Z,42.805,6.029,13.2991,4.60014,2470.227,2021-2-13T06:39:14Z
2021-02-13T04:41:13Z,42.805,6.029,13.2982,4.60009,2470.24,2021-2-13T06:42:17Z
2021-02-13T04:44:16Z,42.805,6.029,13.2986,4.60002,2470.227,2021-2-13T06:45:20Z
2021-02-13T04:47:20Z,42.805,6.029,13.2985,4.60003,2470.24,2021-2-13T06:48:23Z
2021-02-13T04:50:23Z,42.805,6.029,13.2989,4.60014,2470.227,2021-2-13T06:51:26Z
2021-02-13T04:53:26Z,42.805,6.029,13.2986,4.60011,2470.227,2021-2-13T06:54:30Z
2021-02-13T04:56:29Z,42.805,6.029,13.2981,4.59998,2470.25,2021-2-13T06:57:33Z
2021-02-13T04:59:32Z,42.805,6.029,13.2982,4.59996,2470.273,2021-2-13T07:00:36Z
2021-02-13T05:02:35Z,42.805,6.029,13.2983,4.60013,2470.287,2021-2-13T07:03:39Z
2021-02-13T05:05:38Z,42.805,6.029,13.2986,4.59999,2470.227,2021-2-13T07:06:42Z
2021-02-13T05:08:41Z,42.805,6.029,13.2989,4.60006,2470.264,2021-2-13T07:09:45Z
2021-02-13T05:11:45Z,42.805,6.029,13.2990,4.60013,2470.24,2021-2-13T07:12:48Z
2021-02-13T05:14:48Z,42.805,6.029,13.2982,4.60003,2470.287,2021-2-13T07:15:51Z
2021-02-13T05:17:51Z,42.805,6.029,13.2988,4.60004,2470.287,2021-2-13T07:18:55Z
2021-02-13T05:20:54Z,42.805,6.029,13.2999,4.60015,2470.25,2021-2-13T07:21:58Z
2021-02-13T05:23:57Z,42.805,6.029,13.2995,4.60022,2470.24,2021-2-13T07:25:01Z
2021-02-13T05:27:00Z,42.805,6.029,13.2981,4.60006,2470.273,2021-2-13T07:28:04Z
2021-02-13T05:30:03Z,42.805,6.029,13.2981,4.59995,2470.32,2021-2-13T07:31:07Z
2021-02-13T05:33:06Z,42.805,6.029,13.2988,4.60008,2470.273,2021-2-13T07:34:10Z
2021-02-13T05:36:10Z,42.805,6.029,13.2986,4.60019,2470.297,2021-2-13T07:37:13Z
2021-02-13T05:39:13Z,42.805,6.029,13.2986,4.60004,2470.297,2021-2-13T07:40:16Z
2021-02-13T05:42:16Z,42.805,6.029,13.2987,4.60003,2470.31,2021-2-13T07:43:19Z
2021-02-13T05:45:19Z,42.805,6.029,13.2990,4.60017,2470.32,2021-2-13T07:46:23Z
2021-02-13T05:48:22Z,42.805,6.029,13.2992,4.60025,2470.32,2021-2-13T07:49:26Z
2021-02-13T05:51:25Z,42.805,6.029,13.2994,4.60017,2470.334,2021-2-13T07:52:29Z
2021-02-13T05:54:28Z,42.805,6.029,13.2984,4.60006,2470.32,2021-2-13T07:55:32Z
2021-02-13T05:57:31Z,42.805,6.029,13.2991,4.60011,2470.32,2021-2-13T07:58:35Z
2021-02-13T06:00:35Z,42.805,6.029,13.2984,4.60007,2470.32,2021-2-13T08:01:38Z
2021-02-13T06:03:38Z,42.805,6.029,13.2993,4.60005,2470.343,2021-2-13T08:04:41Z
2021-02-13T06:06:41Z,42.805,6.029,13.2987,4.60011,2470.343,2021-2-13T08:07:45Z
2021-02-13T06:09:44Z,42.805,6.029,13.2983,4.60003,2470.334,2021-2-13T08:10:48Z
2021-02-13T06:12:47Z,42.805,6.029,13.2984,4.60006,2470.32,2021-2-13T08:13:51Z
2021-02-13T06:15:50Z,42.805,6.029,13.2985,4.59999,2470.357,2021-2-13T08:16:54Z
2021-02-13T06:18:53Z,42.805,6.029,13.2992,4.60009,2470.357,2021-2-13T08:19:57Z
2021-02-13T06:21:56Z,42.805,6.029,13.2983,4.60000,2470.343,2021-2-13T08:23:00Z
2021-02-13T06:24:59Z,42.805,6.029,13.2996,4.60003,2470.38,2021-2-13T08:26:03Z
2021-02-13T06:28:03Z,42.805,6.029,13.2991,4.59996,2470.343,2021-2-13T08:29:06Z
2021-02-13T06:31:06Z,42.805,6.029,13.2992,4.60001,2470.343,2021-2-13T08:32:09Z
2021-02-13T06:34:09Z,42.805,6.029,13.2985,4.60003,2470.39,2021-2-13T08:35:13Z
2021-02-13T06:37:12Z,42.805,6.029,13.2989,4.60006,2470.39,2021-2-13T08:38:16Z
2021-02-13T06:40:15Z,42.805,6.029,13.2986,4.60001,2470.343,2021-2-13T08:41:19Z
2021-02-13T06:43:18Z,42.805,6.029,13.2983,4.60001,2470.366,2021-2-13T08:44:22Z
2021-02-13T06:46:21Z,42.805,6.029,13.2981,4.59999,2470.357,2021-2-13T08:47:25Z
2021-02-13T06:49:24Z,42.805,6.029,13.2983,4.59996,2470.366,2021-2-13T08:50:28Z
2021-02-13T06:52:28Z,42.805,6.029,13.2983,4.60001,2470.413,2021-2-13T08:53:31Z
2021-02-13T06:55:31Z,42.805,6.029,13.2983,4.60013,2470.39,2021-2-13T08:56:34Z
2021-02-13T06:58:34Z,42.805,6.029,13.2991,4.60005,2470.404,2021-2-13T08:59:38Z
2021-02-13T07:01:37Z,42.805,6.029,13.2982,4.60003,2470.404,2021-2-13T09:02:41Z
2021-02-13T07:04:40Z,42.805,6.029,13.2990,4.60005,2470.413,2021-2-13T09:05:44Z
2021-02-13T07:07:43Z,42.805,6.029,13.2985,4.60013,2470.427,2021-2-13T09:08:47Z
2021-02-13T07:10:46Z,42.805,6.029,13.2983,4.60006,2470.427,2021-2-13T09:11:50Z
2021-02-13T07:13:49Z,42.805,6.029,13.2987,4.60006,2470.45,2021-2-13T09:14:53Z
2021-02-13T07:16:53Z,42.805,6.029,13.2990,4.60009,2470.413,2021-2-13T09:17:56Z
2021-02-13T07:19:56Z,42.805,6.029,13.2991,4.60014,2470.404,2021-2-13T09:20:59Z
2021-02-13T07:22:59Z,42.805,6.029,13.2993,4.60020,2470.427,2021-2-13T09:24:03Z
2021-02-13T07:26:02Z,42.805,6.029,13.2983,4.60001,2470.413,2021-2-13T09:27:06Z
2021-02-13T07:29:05Z,42.805,6.029,13.2993,4.60014,2470.45,2021-2-13T09:30:09Z
2021-02-13T07:32:08Z,42.805,6.029,13.2990,4.60001,2470.427,2021-2-13T09:33:12Z
2021-02-13T07:35:11Z,42.805,6.029,13.2991,4.60011,2470.437,2021-2-13T09:36:15Z
2021-02-13T07:38:14Z,42.805,6.029,13.2986,4.60009,2470.404,2021-2-13T09:39:18Z
2021-02-13T07:41:18Z,42.805,6.029,13.2987,4.60009,2470.427,2021-2-13T09:42:21Z
2021-02-13T07:44:21Z,42.805,6.029,13.2987,4.60009,2470.437,2021-2-13T09:45:24Z
2021-02-13T07:47:24Z,42.805,6.029,13.2991,4.60010,2470.413,2021-2-13T09:48:28Z
2021-02-13T07:50:27Z,42.805,6.029,13.2986,4.59998,2470.423,2021-2-13T09:51:31Z
2021-02-13T07:53:30Z,42.805,6.029,13.2983,4.60011,2470.437,2021-2-13T09:54:34Z
2021-02-13T07:56:33Z,42.805,6.029,13.2979,4.59995,2470.437,2021-2-13T09:57:37Z
2021-02-13T07:59:36Z,42.805,6.029,13.2986,4.59999,2470.437,2021-2-13T10:00:40Z
2021-02-13T08:02:39Z,42.805,6.029,13.2982,4.60000,2470.437,2021-2-13T10:03:43Z
2021-02-13T08:05:43Z,42.805,6.029,13.2982,4.59996,2470.45,2021-2-13T10:06:46Z
2021-02-13T08:08:46Z,42.805,6.029,13.2986,4.60001,2470.45,2021-2-13T10:09:49Z
2021-02-13T08:11:49Z,42.805,6.029,13.2988,4.60000,2470.46,2021-2-13T10:12:53Z
2021-02-13T08:14:52Z,42.805,6.029,13.2989,4.60013,2470.46,2021-2-13T10:15:56Z
2021-02-13T08:17:55Z,42.805,6.029,13.2986,4.60004,2470.474,2021-2-13T10:18:59Z
2021-02-13T08:20:58Z,42.805,6.029,13.2987,4.60001,2470.483,2021-2-13T10:22:02Z
2021-02-13T08:24:01Z,42.805,6.029,13.2986,4.60011,2470.45,2021-2-13T10:25:05Z
2021-02-13T08:27:04Z,42.805,6.029,13.2985,4.60003,2470.423,2021-2-13T10:28:08Z
2021-02-13T08:30:08Z,42.805,6.029,13.2983,4.60008,2470.483,2021-2-13T10:31:11Z
2021-02-13T08:33:11Z,42.805,6.029,13.2984,4.60006,2470.427,2021-2-13T10:34:14Z
2021-02-13T08:36:14Z,42.805,6.029,13.2985,4.59995,2470.437,2021-2-13T10:37:18Z
2021-02-13T08:39:17Z,42.805,6.029,13.2988,4.60001,2470.404,2021-2-13T10:40:21Z
2021-02-13T08:42:20Z,42.805,6.029,13.2986,4.59998,2470.437,2021-2-13T10:43:24Z
2021-02-13T08:45:23Z,42.805,6.029,13.2990,4.59999,2470.413,2021-2-13T10:46:27Z
2021-02-13T08:48:26Z,42.805,6.029,13.2982,4.60003,2470.437,2021-2-13T10:49:30Z
2021-02-13T08:51:30Z,42.805,6.029,13.2979,4.60003,2470.437,2021-2-13T10:52:33Z
2021-02-13T08:54:33Z,42.805,6.029,13.2986,4.59998,2470.427,2021-2-13T10:55:36Z
2021-02-13T08:57:36Z,42.805,6.029,13.2985,4.60004,2470.46,2021-2-13T10:58:40Z
2021-02-13T09:00:39Z,42.805,6.029,13.2988,4.59999,2470.413,2021-2-13T11:01:43Z
2021-02-13T09:03:42Z,42.805,6.029,13.2986,4.60004,2470.427,2021-2-13T11:04:46Z
2021-02-13T09:06:45Z,42.805,6.029,13.2982,4.59996,2470.437,2021-2-13T11:07:49Z
2021-02-13T09:09:48Z,42.805,6.029,13.2982,4.59997,2470.427,2021-2-13T11:10:52Z
2021-02-13T09:12:51Z,42.805,6.029,13.2982,4.59999,2470.427,2021-2-13T11:13:55Z
2021-02-13T09:15:55Z,42.805,6.029,13.2985,4.59995,2470.427,2021-2-13T11:16:58Z
2021-02-13T09:18:58Z,42.805,6.029,13.2990,4.60009,2470.437,2021-2-13T11:20:01Z
2021-02-13T09:22:01Z,42.805,6.029,13.2985,4.60009,2470.413,2021-2-13T11:23:05Z
2021-02-13T09:25:04Z,42.805,6.029,13.2989,4.60003,2470.45,2021-2-13T11:26:08Z
2021-02-13T09:28:07Z,42.805,6.029,13.2984,4.59994,2470.413,2021-2-13T11:29:11Z
2021-02-13T09:31:10Z,42.805,6.029,13.2985,4.59994,2470.437,2021-2-13T11:32:14Z
2021-02-13T09:34:13Z,42.805,6.029,13.2989,4.59994,2470.413,2021-2-13T11:35:17Z
2021-02-13T09:37:16Z,42.805,6.029,13.2984,4.59997,2470.404,2021-2-13T11:38:20Z
2021-02-13T09:40:20Z,42.805,6.029,13.2986,4.59996,2470.45,2021-2-13T11:41:23Z
2021-02-13T09:43:23Z,42.805,6.029,13.2983,4.60003,2470.404,2021-2-13T11:44:26Z
2021-02-13T09:46:26Z,42.805,6.029,13.2981,4.60001,2470.413,2021-2-13T11:47:30Z
2021-02-13T09:49:29Z,42.805,6.029,13.2981,4.60034,2470.45,2021-2-13T11:50:33Z
2021-02-13T09:52:32Z,42.805,6.029,13.2989,4.59999,2470.413,2021-2-13T11:53:36Z
2021-02-13T09:55:35Z,42.805,6.029,13.2988,4.59999,2470.413,2021-2-13T11:56:39Z
2021-02-13T09:58:38Z,42.805,6.029,13.2982,4.59995,2470.413,2021-2-13T11:59:42Z
2021-02-13T10:01:41Z,42.805,6.029,13.2983,4.59996,2470.46,2021-2-13T12:02:45Z
2021-02-13T10:04:45Z,42.805,6.029,13.2986,4.59998,2470.413,2021-2-13T12:05:48Z
2021-02-13T10:07:48Z,42.805,6.029,13.2984,4.59995,2470.437,2021-2-13T12:08:51Z
2021-02-13T10:10:51Z,42.805,6.029,13.2986,4.59997,2470.437,2021-2-13T12:11:55Z
2021-02-13T10:13:54Z,42.805,6.029,13.2979,4.59993,2470.437,2021-2-13T12:14:58Z
2021-02-13T10:16:57Z,42.805,6.029,13.2982,4.59999,2470.427,2021-2-13T12:18:01Z
2021-02-13T10:20:00Z,42.805,6.029,13.2983,4.59999,2470.413,2021-2-13T12:21:04Z
2021-02-13T10:23:03Z,42.805,6.029,13.2984,4.59992,2470.39,2021-2-13T12:24:07Z
2021-02-13T10:26:06Z,42.805,6.029,13.2984,4.59993,2470.39,2021-2-13T12:27:10Z
2021-02-13T10:29:10Z,42.805,6.029,13.2982,4.59999,2470.39,2021-2-13T12:30:13Z
2021-02-13T10:32:13Z,42.805,6.029,13.2983,4.60004,2470.39,2021-2-13T12:33:16Z
2021-02-13T10:35:16Z,42.805,6.029,13.2999,4.60010,2470.404,2021-2-13T12:36:20Z
2021-02-13T10:38:19Z,42.805,6.029,13.2979,4.60002,2470.413,2021-2-13T12:39:23Z
2021-02-13T10:41:22Z,42.805,6.029,13.2983,4.60005,2470.366,2021-2-13T12:42:26Z
2021-02-13T10:44:25Z,42.805,6.029,13.2986,4.60008,2470.413,2021-2-13T12:45:29Z
2021-02-13T10:47:28Z,42.805,6.029,13.2991,4.60003,2470.427,2021-2-13T12:48:32Z
2021-02-13T10:50:31Z,42.805,6.029,13.2983,4.59999,2470.413,2021-2-13T12:51:35Z
2021-02-13T10:53:35Z,42.805,6.029,13.2982,4.60002,2470.404,2021-2-13T12:54:38Z
2021-02-13T10:56:38Z,42.805,6.029,13.2981,4.59991,2470.366,2021-2-13T12:57:41Z
2021-02-13T10:59:41Z,42.805,6.029,13.2982,4.59990,2470.404,2021-2-13T13:00:45Z
2021-02-13T11:02:44Z,42.805,6.029,13.2982,4.59996,2470.404,2021-2-13T13:03:48Z
2021-02-13T11:05:47Z,42.805,6.029,13.2985,4.59995,2470.38,2021-2-13T13:06:51Z
2021-02-13T11:08:50Z,42.805,6.029,13.2984,4.59994,2470.404,2021-2-13T13:09:54Z
2021-02-13T11:11:53Z,42.805,6.029,13.2983,4.59997,2470.357,2021-2-13T13:12:57Z
2021-02-13T11:14:56Z,42.805,6.029,13.2990,4.59996,2470.366,2021-2-13T13:16:00Z
2021-02-13T11:18:00Z,42.805,6.029,13.2982,4.60002,2470.343,2021-2-13T13:19:03Z
2021-02-13T11:21:03Z,42.805,6.029,13.2983,4.59992,2470.38,2021-2-13T13:22:06Z
2021-02-13T11:24:06Z,42.805,6.029,13.2983,4.59997,2470.38,2021-2-13T13:25:10Z
2021-02-13T11:27:09Z,42.805,6.029,13.2979,4.59991,2470.343,2021-2-13T13:28:13Z
2021-02-13T11:30:12Z,42.805,6.029,13.2986,4.60002,2470.366,2021-2-13T13:31:16Z
2021-02-13T11:33:15Z,42.805,6.029,13.2980,4.59991,2470.366,2021-2-13T13:34:19Z
2021-02-13T11:36:18Z,42.805,6.029,13.2981,4.59995,2470.343,2021-2-13T13:37:22Z
2021-02-13T11:39:21Z,42.805,6.029,13.2985,4.59997,2470.343,2021-2-13T13:40:25Z
2021-02-13T11:42:25Z,42.805,6.029,13.2978,4.59991,2470.357,2021-2-13T13:43:28Z
2021-02-13T11:45:28Z,42.805,6.029,13.2985,4.59999,2470.343,2021-2-13T13:46:31Z
2021-02-13T11:48:31Z,42.805,6.029,13.2982,4.59991,2470.32,2021-2-13T13:49:35Z
2021-02-13T11:51:34Z,42.805,6.029,13.2985,4.59991,2470.343,2021-2-13T13:52:38Z
2021-02-13T11:54:37Z,42.805,6.029,13.2982,4.59991,2470.32,2021-2-13T13:55:41Z
2021-02-13T11:57:40Z,42.805,6.029,13.2980,4.59994,2470.343,2021-2-13T13:58:44Z
2021-02-13T12:00:43Z,42.805,6.029,13.2982,4.59999,2470.334,2021-2-13T14:01:47Z
2021-02-13T12:03:47Z,42.805,6.029,13.2983,4.59997,2470.366,2021-2-13T14:04:50Z
2021-02-13T12:06:50Z,42.805,6.029,13.2985,4.59995,2470.343,2021-2-13T14:07:53Z
2021-02-13T12:09:53Z,42.805,6.029,13.2985,4.59995,2470.343,2021-2-13T14:10:57Z
2021-02-13T12:12:56Z,42.805,6.029,13.2986,4.59992,2470.334,2021-2-13T14:14:00Z
2021-02-13T12:15:59Z,42.805,6.029,13.2980,4.59998,2470.32,2021-2-13T14:17:03Z
2021-02-13T12:19:02Z,42.805,6.029,13.2981,4.59994,2470.334,2021-2-13T14:20:06Z
2021-02-13T12:22:05Z,42.805,6.029,13.2982,4.59999,2470.32,2021-2-13T14:23:09Z
2021-02-13T12:25:08Z,42.805,6.029,13.2983,4.59996,2470.32,2021-2-13T14:26:12Z
2021-02-13T12:28:12Z,42.805,6.029,13.2986,4.60002,2470.32,2021-2-13T14:29:15Z
2021-02-13T12:31:15Z,42.805,6.029,13.2983,4.59996,2470.334,2021-2-13T14:32:18Z
2021-02-13T12:34:18Z,42.805,6.029,13.2983,4.60004,2470.32,2021-2-13T14:35:22Z
2021-02-13T12:37:21Z,42.805,6.029,13.2983,4.59996,2470.287,2021-2-13T14:38:25Z
2021-02-13T12:40:24Z,42.805,6.029,13.2983,4.59995,2470.287,2021-2-13T14:41:28Z
2021-02-13T12:43:27Z,42.805,6.029,13.2983,4.59990,2470.32,2021-2-13T14:44:31Z
2021-02-13T12:46:30Z,42.805,6.029,13.2982,4.59986,2470.297,2021-2-13T14:47:34Z
2021-02-13T12:49:33Z,42.805,6.029,13.2981,4.59991,2470.297,2021-2-13T14:50:37Z
2021-02-13T12:52:37Z,42.805,6.029,13.2988,4.59999,2470.31,2021-2-13T14:53:40Z
2021-02-13T12:55:40Z,42.805,6.029,13.2984,4.59990,2470.287,2021-2-13T14:56:43Z
2021-02-13T12:58:43Z,42.805,6.029,13.2985,4.59997,2470.273,2021-2-13T14:59:47Z
2021-02-13T13:01:46Z,42.805,6.029,13.2987,4.59992,2470.273,2021-2-13T15:02:50Z
2021-02-13T13:04:49Z,42.805,6.029,13.2979,4.59994,2470.287,2021-2-13T15:05:53Z
2021-02-13T13:07:52Z,42.805,6.029,13.2981,4.59999,2470.297,2021-2-13T15:08:56Z
2021-02-13T13:10:55Z,42.805,6.029,13.2978,4.59991,2470.273,2021-2-13T15:11:59Z
2021-02-13T13:13:58Z,42.805,6.029,13.2983,4.60001,2470.25,2021-2-13T15:15:02Z
2021-02-13T13:17:02Z,42.805,6.029,13.2986,4.59999,2470.31,2021-2-13T15:18:05Z
2021-02-13T13:20:05Z,42.805,6.029,13.2981,4.59993,2470.25,2021-2-13T15:21:08Z
2021-02-13T13:23:08Z,42.805,6.029,13.2982,4.59993,2470.25,2021-2-13T15:24:12Z
2021-02-13T13:26:11Z,42.805,6.029,13.2982,4.59995,2470.273,2021-2-13T15:27:15Z
2021-02-13T13:29:14Z,42.805,6.029,13.2980,4.59994,2470.25,2021-2-13T15:30:18Z
2021-02-13T13:32:17Z,42.805,6.029,13.2982,4.59991,2470.287,2021-2-13T15:33:21Z
2021-02-13T13:35:20Z,42.805,6.029,13.2976,4.59990,2470.287,2021-2-13T15:36:24Z
2021-02-13T13:38:23Z,42.805,6.029,13.2978,4.59990,2470.24,2021-2-13T15:39:27Z
2021-02-13T13:41:27Z,42.805,6.029,13.2983,4.59994,2470.25,2021-2-13T15:42:30Z
2021-02-13T13:44:30Z,42.805,6.029,13.2980,4.59994,2470.25,2021-2-13T15:45:33Z
2021-02-13T13:47:33Z,42.805,6.029,13.2985,4.59993,2470.227,2021-2-13T15:48:37Z
2021-02-13T13:50:36Z,42.805,6.029,13.2985,4.59991,2470.273,2021-2-13T15:51:40Z
2021-02-13T13:53:39Z,42.805,6.029,13.2978,4.59990,2470.273,2021-2-13T15:54:43Z
2021-02-13T13:56:42Z,42.805,6.029,13.2983,4.59988,2470.264,2021-2-13T15:57:46Z
2021-02-13T13:59:45Z,42.805,6.029,13.2980,4.59997,2470.264,2021-2-13T16:00:49Z
2021-02-13T14:02:49Z,42.805,6.029,13.2984,4.59993,2470.287,2021-2-13T16:03:52Z
2021-02-13T14:05:52Z,42.805,6.029,13.2983,4.59992,2470.25,2021-2-13T16:06:55Z
2021-02-13T14:08:55Z,42.805,6.029,13.2981,4.59989,2470.24,2021-2-13T16:09:59Z
2021-02-13T14:11:58Z,42.805,6.029,13.2982,4.59991,2470.25,2021-2-13T16:13:02Z
2021-02-13T14:15:01Z,42.805,6.029,13.2979,4.59991,2470.227,2021-2-13T16:16:05Z
2021-02-13T14:18:04Z,42.805,6.029,13.2986,4.59991,2470.227,2021-2-13T16:19:08Z
2021-02-13T14:21:07Z,42.805,6.029,13.2982,4.59993,2470.25,2021-2-13T16:22:11Z
2021-02-13T14:24:10Z,42.805,6.029,13.2982,4.59993,2470.25,2021-2-13T16:25:14Z
2021-02-13T14:27:14Z,42.805,6.029,13.2983,4.59988,2470.227,2021-2-13T16:28:17Z
2021-02-13T14:30:17Z,42.805,6.029,13.2982,4.59996,2470.217,2021-2-13T16:31:20Z
2021-02-13T14:33:20Z,42.805,6.029,13.2981,4.59991,2470.217,2021-2-13T16:34:24Z
2021-02-13T14:36:23Z,42.805,6.029,13.2985,4.60002,2470.217,2021-2-13T16:37:27Z
2021-02-13T14:39:26Z,42.805,6.029,13.2980,4.59994,2470.203,2021-2-13T16:40:30Z
2021-02-13T14:42:29Z,42.805,6.029,13.2981,4.59986,2470.203,2021-2-13T16:43:33Z
2021-02-13T14:45:32Z,42.805,6.029,13.2977,4.59990,2470.227,2021-2-13T16:46:36Z
2021-02-13T14:48:35Z,42.805,6.029,13.2979,4.59988,2470.203,2021-2-13T16:49:39Z
2021-02-13T14:51:39Z,42.805,6.029,13.2982,4.59987,2470.227,2021-2-13T16:52:42Z
2021-02-13T14:54:42Z,42.805,6.029,13.2979,4.59991,2470.217,2021-2-13T16:55:45Z
2021-02-13T14:57:45Z,42.805,6.029,13.2982,4.59992,2470.227,2021-2-13T16:58:49Z
2021-02-13T15:00:48Z,42.805,6.029,13.2982,4.59991,2470.18,2021-2-13T17:01:52Z
2021-02-13T15:03:51Z,42.805,6.029,13.2985,4.59991,2470.203,2021-2-13T17:04:55Z
2021-02-13T15:06:54Z,42.805,6.029,13.2986,4.59993,2470.203,2021-2-13T17:07:58Z
2021-02-13T15:09:57Z,42.805,6.029,13.2982,4.59991,2470.203,2021-2-13T17:11:01Z
2021-02-13T15:13:00Z,42.805,6.029,13.2982,4.59993,2470.208,2021-2-13T17:14:04Z